Flag for U.S.A. Weather past 2 weeks in Honolulu, Hawaii, U.S.A.

78 °F

Passing clouds.

Feels Like: 80 °F
Forecast: 73 / 81 °F
Wind: 10 mph from Northeast

Location: Honolulu International Airport

Current Time: Oct 4, 2015 at 2:54:42 AM

Latest Report: Oct 4, 2015 at 1:53 AM

Visibility: 10 mi

Pressure: 29.79 "Hg

Humidity: 71%

Dew point: 68 °F

Location of HonoluluLocation

Historic Weather in Honolulu — Graph


Honolulu temperature yesterday

Maximum temperature yesterday: 87 °F (at 11:53 AM)
Minimum temperature yesterday: 76 °F (at 12:53 AM)
Average temperature yesterday: 80 °F

Past Weeks' High & Low Weather Summary

High90 °F (Sep 19, 1:53 PM)84% (Oct 2, 4:53 AM)30.01 "Hg (Oct 2, 4:53 AM)
Low73 °F (Oct 2, 4:53 AM)46% (Oct 2, 11:53 AM)29.74 "Hg (Oct 2, 2:53 PM)
Average82 °F66%29.89 "Hg
* Reported Sep 19 1:53 AM — Oct 4 1:53 AM, Honolulu, Weather by CustomWeather, © 2015

Note: Actual official high and low records may vary slightly from our data, if they occured in-between our weather recording intervals... More about our weather records


Honolulu weather history for previous 24 hours

Time TempWeatherWind HumidityBarometerVisibility
1:53 AM
Sun, Oct 4
78 °FPassing clouds.10 mph71%29.79 "Hg10 mi
12:53 AM79 °FPassing clouds.3 mph72%29.81 "Hg10 mi
11:53 PM
Sat, Oct 3
78 °FPassing clouds.13 mph71%29.83 "Hg10 mi
10:53 PM78 °FPassing clouds.12 mph69%29.84 "Hg10 mi
9:53 PM79 °FPassing clouds.12 mph65%29.83 "Hg10 mi
8:53 PM79 °FPassing clouds.10 mph62%29.82 "Hg10 mi
7:53 PM78 °FPassing clouds.14 mph64%29.80 "Hg10 mi
6:53 PM79 °FPassing clouds.15 mph65%29.79 "Hg10 mi
5:53 PM81 °FScattered clouds.20 mph60%29.77 "Hg10 mi
4:53 PM83 °FScattered clouds.16 mph59%29.77 "Hg10 mi
3:53 PM84 °FScattered clouds.17 mph57%29.75 "Hg10 mi
2:53 PM84 °FScattered clouds.17 mph57%29.77 "Hg10 mi
1:53 PM86 °FScattered clouds.17 mph53%29.78 "Hg10 mi
12:53 PM86 °FScattered clouds.17 mph53%29.80 "Hg10 mi
11:53 AM87 °FScattered clouds.13 mph50%29.82 "Hg10 mi
10:53 AM85 °FScattered clouds.16 mph51%29.84 "Hg10 mi
9:53 AM85 °FScattered clouds.14 mph51%29.85 "Hg10 mi
8:53 AM82 °FScattered clouds.8 mph56%29.84 "Hg10 mi
7:53 AM80 °FScattered clouds.3 mph60%29.81 "Hg10 mi
6:53 AM77 °FScattered clouds.3 mph64%29.80 "Hg10 mi
5:53 AM76 °FClear.3 mph67%29.80 "Hg10 mi
4:53 AM76 °FPassing clouds.5 mph67%29.78 "Hg10 mi
3:53 AM76 °FPassing clouds.7 mph67%29.77 "Hg10 mi
2:53 AM76 °FPassing clouds.No wind67%29.77 "Hg10 mi
Weather by CustomWeather, © 2015

See weather overviewHow to use our weather pages